Voltar ao catálogo

STARLINK-36630

AtivoComunicaçõesSSO
NORAD 67703·PAYLOAD·🇺🇸 United States

Lançado Feb 7, 2026 de Vandenberg Space Force Base

Loading…

Próximas Passagens (próximas 24 horas)

TLE

AtualizadoSource: CelesTrak SupGP

Época: Sep 15, 2026, 03:34 UTC

1 67703C 26025L   26258.14909722 -.00011419  00000+0 -35450-3 0  2580
2 67703  97.2851   8.1450 0000875  83.4359  40.6138 15.33441830    12

Acompanhe STARLINK-36630 em tempo real com AllMySat

Download on the App Store